This is the latest recevied weather packets stored in our database for station/object WW5JC. If no packets are shown the sender has not sent any weather packets the latest 1 day(s).
| Time | Temp. | Humidity | Pressure | Rain* | Wind** | Luminosity | Snow |
|---|---|---|---|---|---|---|---|
| 1778026437 | 26.11° C | 83% | 1006.5 hPa | 0 mm | 0.89 m/s, 193° | 23 W/m² | - |
| 1778026134 | 26.11° C | 84% | 1006.2 hPa | 0 mm | 0.89 m/s, 188° | 40 W/m² | - |
| 1778025832 | 26.11° C | 84% | 1006 hPa | 0 mm | 1.34 m/s, 162° | 58 W/m² | - |
| 1778025528 | 26.11° C | 83% | 1006.4 hPa | 0 mm | 2.68 m/s, 197° | 43 W/m² | - |
| 1778025226 | 26.11° C | 83% | 1006.1 hPa | 0 mm | 1.34 m/s, 186° | 37 W/m² | - |
| 1778024923 | 26.67° C | 82% | 1006.1 hPa | 0 mm | 1.34 m/s, 179° | 38 W/m² | - |
| 1778024620 | 26.67° C | 82% | 1006.1 hPa | 0 mm | 0.89 m/s, 188° | 44 W/m² | - |
| 1778024317 | 26.67° C | 81% | 1006.2 hPa | 0 mm | 2.24 m/s, 195° | 40 W/m² | - |
| 1778024015 | 26.67° C | 81% | 1006 hPa | 0 mm | 2.68 m/s, 196° | 44 W/m² | - |
| 1778023712 | 26.67° C | 80% | 1005.9 hPa | 0 mm | 1.79 m/s, 183° | 39 W/m² | - |
| 1778023410 | 26.67° C | 80% | 1006 hPa | 0 mm | 2.68 m/s, 193° | 52 W/m² | - |
| 1778023106 | 27.22° C | 79% | 1006.2 hPa | 0 mm | 3.13 m/s, 199° | 66 W/m² | - |
| 1778022804 | 27.22° C | 78% | 1006.2 hPa | 0 mm | 2.68 m/s, 186° | 90 W/m² | - |
| 1778022502 | 27.22° C | 78% | 1006.2 hPa | 0 mm | 2.68 m/s, 201° | 107 W/m² | - |
| 1778022199 | 27.22° C | 79% | 1006.3 hPa | 0 mm | 1.79 m/s, 182° | 109 W/m² | - |
| 1778021895 | 27.78° C | 78% | 1005.7 hPa | 0 mm | 2.24 m/s, 176° | 125 W/m² | - |
| 1778021592 | 27.78° C | 77% | 1005.8 hPa | 0 mm | 3.58 m/s, 173° | 158 W/m² | - |
| 1778021287 | 27.22° C | 78% | 1005.7 hPa | 0 mm | 1.79 m/s, 200° | 192 W/m² | - |
| 1778020985 | 27.22° C | 79% | 1005.8 hPa | 0 mm | 0.89 m/s, 199° | 125 W/m² | - |
| 1778020682 | 27.22° C | 78% | 1005.8 hPa | 0 mm | 2.24 m/s, 195° | 123 W/m² | - |
| 1778020379 | 27.22° C | 78% | 1005.8 hPa | 0 mm | 1.34 m/s, 188° | 127 W/m² | - |
| 1778020075 | 27.22° C | 78% | 1005.6 hPa | 0 mm | 2.68 m/s, 195° | 148 W/m² | - |
| 1778019771 | 27.22° C | 78% | 1005.7 hPa | 0 mm | 3.58 m/s, 191° | 168 W/m² | - |
| 1778019468 | 27.22° C | 78% | 1006 hPa | 0 mm | 3.13 m/s, 193° | 128 W/m² | - |
| 1778019165 | 27.22° C | 79% | 1005.9 hPa | 0 mm | 2.68 m/s, 209° | 158 W/m² | - |
* Rain latest hour (hover to see other rain measurements)
** Current wind speed in m/s (hover to see current wind gust speed)